Погода в Нижнекамске

Россия / Республика Татарстан     55°38′02″N   51°48′32″E
темп.,
°C
ветер,
м/с
пор.,
м/с
влажн.,
%
обл.,
%
осадки,
мм/ч
давл.,
гПа
погр.,
м
23 октября, сб
сб2300:00+9зюз8168651 0.0 1002734
03:00+8зюз714890 0.0 1004559
06:00+7зюз714893 0.1 1005572
09:00+9зюз7127925 0.2 10071139
12:00+10зюз812605 0.1 10081303
15:00+9зюз712635 0.1 10091110
18:00+7юз51169100 0.0 1010310
21:00+5ююз4107689 0.0 1011210
24 октября, вс
вс2400:00+4ююз367670 0.0 101191
03:00+5ю3777100 0.0 1009144
06:00+5ююз51085100 0.0 1009376
09:00+6зюз698438 0.1 1009651
12:00+8з69585 0.0 10091160
15:00+7зюз69635 0.0 1010899
18:00+4зюз410796 0.0 1012239
21:00+6з5857100 0.0 1013419
25 октября, пн
пн2500:00+5зюз3766100 0.0 1013336
03:00+4з1266100 0.0 101352
06:00+3юз2270100 0.0 101440
09:00+5зюз467293 0.1 1014663
12:00+3сз5793100 0.1 1015653
15:00+2с697478 0.2 1017992
18:000ссз612715 0.0 1021608
21:00−1ссз410785 0.0 1022375
26 октября, вт
вт2600:00−2сз38855 0.0 1024262
03:00−3зсз25845 0.0 1025136
06:00−3зюз23799 0.0 102552
09:000зюз455873 0.0 1026320
12:00+3юз684880 0.0 1024876
15:00+3юз6114690 0.0 1022837
18:00+2юз51256100 0.0 1022519
21:000юз41169100 0.0 1021271
27 октября, ср
ср2700:00−1ююз498280 0.0 1021192
03:00−2ююз498965 0.0 1020181
06:00−2ююз499085 0.0 1019197
09:00+1юз5976100 0.0 1019376
12:00+4юз6964100 0.0 1018670
15:00+4юз61165100 0.0 1017602
18:00+2юз51270100 0.0 1016382
21:00+2юз51168100 0.0 1015332